Regional Weather Roundup
Issued by NWS Boston, MA

Home | Current Version | Previous Version | Text Only | Print | Product List | Glossary On
Versions: 1 2 3 4 5 6 7 8 9 10 11 12 13 14 15 16 17 18 19 20 21 22 23 24 25 26 27 28 29 30 31 32 33 34 35 36 37 38 39 40 41 42 43 44 45 46
000
ASUS41 KBOX 290410
RWRBOX

REGIONAL WEATHER ROUNDUP
NATIONAL WEATHER SERVICE TAUNTON MA
1200 AM EDT FRI MAY 29 2015

NOTE:  "FAIR" INDICATES FEW OR NO CLOUDS BELOW 12,000 FEET WITH NO
SIGNIFICANT WEATHER AND/OR OBSTRUCTIONS TO VISIBILITY.  THE FOLLOWING
OBSERVATION LOCATIONS DO NOT REPORT PRESENT WEATHER...PROVINCETOWN...
SMITHFIELD...BLOCK ISLAND...KEENE...AND OXFORD.

MAZALL-290500-
EASTERN MASSACHUSETTS

CITY           SKY/WX    TMP DP  RH WIND       PRES   REMARKS
BOSTON         PTCLDY    70  55  59 NW12      30.21R
BEVERLY        PTCLDY    63  55  75 W5        30.20R
LAWRENCE       CLEAR     64  55  72 W3        30.23R
BEDFORD        CLEAR     61  58  90 CALM      30.21R
BLUE HILL        N/A     65  55  70 NW10      30.22R
NORWOOD        PTCLDY    63  56  78 CALM      30.22R
MARSHFIELD     MOCLDY    66  63  88 NW5       30.22S
PLYMOUTH       MOCLDY    63  61  93 CALM      30.22R
TAUNTON        MOCLDY    60  58  92 CALM      30.21R FOG
NEW BEDFORD    MOCLDY    61  59  93 CALM      30.21R
$$

MAZALL-290500-
CAPE COD AND THE ISLANDS

CITY           SKY/WX    TMP DP  RH WIND       PRES   REMARKS
FALMOUTH       MOCLDY    61  59  94 SW7       30.22R
HYANNIS        CLOUDY    60  58  92 SW8       30.20R
CHATHAM        CLOUDY    61  59  93 SW8       30.22S
PROVINCETOWN   MOCLDY    61  57  88 W8        30.20S
NANTUCKET      CLOUDY    60  57  89 SW9       30.23F
MARTHAS VNYRD  CLOUDY    60  57  89 SW8       30.22S
$$

MAZALL-290500-
CENTRAL AND WESTERN MASSACHUSETTS

CITY           SKY/WX    TMP DP  RH WIND       PRES   REMARKS
WORCESTER      CLEAR     61  53  75 W6        30.25R
FITCHBURG      CLEAR     61  56  83 CALM      30.24R
ORANGE         CLEAR     56  54  93 SW3       30.25R
SPRINGFIELD    CLEAR     60  54  79 E2        30.24R
WESTFIELD      CLEAR     59  53  80 CALM      30.24R
NORTH ADAMS    PTCLDY    56  54  93 CALM      30.27R
PITTSFIELD     CLEAR     59  52  77 NW5       30.27S
$$

RIZALL-290500-
RHODE ISLAND

CITY           SKY/WX    TMP DP  RH WIND       PRES   REMARKS
PROVIDENCE     MOCLDY    65  61  87 CALM      30.22R
NEWPORT        MOCLDY    59  57  93 CALM      30.22R
BLOCK ISLAND   MOCLDY    59  55  88 SW9       30.23R
SMITHFIELD     PTCLDY   N/A N/A N/A N8        30.22S
WESTERLY       MOCLDY    60  57  89 CALM      30.23R
$$

CTZALL-290500-
CONNECTICUT

CITY           SKY/WX    TMP DP  RH WIND       PRES   REMARKS
BRADLEY INTL   PTCLDY    64  54  69 CALM      30.24R
HARTFORD       FAIR      68  53  58 VRB6      30.24R
BRIDGEPORT     PTCLDY    69  56  62 N8        30.24R
DANBURY        CLEAR     64  52  64 NW3       30.27R
GROTON         MOCLDY    62  59  90 CALM      30.22R
NEW HAVEN      PTCLDY    69  54  58 N8        30.23R
CHESTER        NOT AVBL
MERIDEN        PTCLDY    68  53  58 N5        30.24S
WILLIMANTIC    PTCLDY    65  55  70 CALM      30.24R
OXFORD         CLEAR     61  50  67 N8        30.28R
$$

MEZ002-015-021-024-NHZ003-005-008-011-012-014-VTZ005-008-290500-
NORTHERN NEW ENGLAND

CITY           SKY/WX    TMP DP  RH WIND       PRES   REMARKS
PORTLAND ME    PTCLDY    65  60  84 W6        30.18R
BANGOR ME      CLOUDY    64  62  93 NW9       30.14R
CONCORD NH     CLEAR     64  54  69 NW3       30.22R
MANCHESTER NH  CLEAR     67  54  63 NW6       30.20R
NASHUA NH      CLEAR     62  57  83 CALM      30.23R
PORTSMOUTH NH  PTCLDY    65  55  68 W7        30.18R
JAFFREY NH     CLEAR     61  54  77 N3        30.25R
KEENE NH       FAIR      57  54  88 CALM      30.25S
BURLINGTON VT  CLOUDY    63  59  87 CALM      30.28R
MT. WASHINGTON FOG       45  45 100 NW37        N/A  VSB 0
$$

NYZ052-076-290500-
EASTERN NEW YORK

CITY           SKY/WX    TMP DP  RH WIND       PRES   REMARKS
ALBANY         PTCLDY    62  53  72 NW3       30.28R
NEW YORK CITY  PTCLDY    70  56  61 NE8       30.23R
$$

ANZALL-290500-
MARINE OBSERVATIONS

STATION/POSITION TIME  TEMP    WIND        PRES    VSBY  WAVE
                       AIR SEA DIR/SP/G                  HT/PER
                 (UTC) (F)     (DEG/KT/KT) (MB)    (MI)  (FT/S)
BOSTON BUOY      0350   60 53  310/  8/  8   N/A           1/ 8
BUZZARDS BAY     0300          220/  7/  7   N/A
NANTUCKET SOUND  0350   61 60  220/ 14/ 16   N/A           1/ 3
MASS BAY-STELLWA 0304   58 50  300/  8/ 10   N/A    1 7/8  2/ 4
ISLE OF SHOALS   0300   68     300/ 15/ 16   N/A
S OF BLOCK IS    0308      55                N/A           4/ 6
$$

......................KEY.........................
  SKY/WX - SKY CONDITION/PRESENT WEATHER
  TMP    - TEMPERATURE IN FAHRENHEIT
  DWPT   - DEWPOINT IN FAHRENHEIT
  RH     - RELATIVE HUMIDITY IN PERCENT
  WIND   - DIRECTION AND SPEED IN MPH
  PRES   - MEAN SEA LEVEL PRESSURE IN INCHES OF HG
  WCI    - WIND CHILL INDEX
  VSB    - VISIBILITY IN MILES
  HX     - HEAT INDEX
  TC     - TEMPERATURE IN CELSIUS
  VRB    - VARIABLE WIND DIRECTION
  N/A    - NOT AVAILABLE


USA.gov is the U.S. government's official web portal to all federal, state and local government web resources and services.